Home   Weather   Fairfield Park   Past weeks
Flag for USA

Past Weather in Fairfield Park, North Carolina, USA — Yesterday and Last 2 Weeks

Now
55 °F

Sunny.


Feels Like: 53 °F
Forecast: 56 / 36 °F
Wind: 8 mph from Northwest

Location: Greenville Airport

Current Time: Dec 5, 2019 at 2:41:17 pm

Latest Report: Dec 5, 2019 at 2:15 pm


Visibility: 10 mi

Pressure: 30.06 "Hg

Humidity: 28%

Dew Point: 23 °F

Location of Fairfield ParkLocation

Past Weather in Fairfield Park — Graph

°F

Fairfield Park Temperature Yesterday

Maximum temperature yesterday: 57 °F (at 2:35 pm)
Minimum temperature yesterday: 37 °F (at 6:55 am)
Average temperature yesterday: 46 °F

High & Low Weather Summary for the Past Weeks

 TemperatureHumidityPressure
High70 °F (Nov 27, 4:35 pm)100% (Nov 20, 8:15 pm)30.32 "Hg (Nov 20, 8:15 pm)
Low32 °F (Nov 21, 2:35 am)28% (Dec 5, 12:55 pm)29.52 "Hg (Dec 1, 3:55 pm)
Average49 °F72%29.96 "Hg
* Reported Nov 20 1:35 pm — Dec 5 1:35 pm, Fairfield Park. Weather by CustomWeather, © 2019

Note: Actual official high and low records may vary slightly from our data, if they occured in-between our weather recording intervals... More about our weather records

Fairfield Park Weather History for the Previous 24 Hours

Scroll right to see more
 ConditionsComfort  
Time TempWeatherWind HumidityBarometerVisibility
1:35 pm
Thu, Dec 5
55 °FSunny.10 mph28%30.06 "Hg10 mi
1:15 pm55 °FSunny.10 mph28%30.05 "Hg10 mi
12:55 pm55 °FSunny.10 mph28%30.05 "Hg10 mi
12:35 pm54 °FSunny.7 mph33%30.06 "Hg10 mi
12:15 pm54 °FSunny.8 mph33%30.06 "Hg10 mi
11:55 am54 °FSunny.9 mph33%30.07 "Hg10 mi
11:35 am52 °FSunny.8 mph35%30.07 "Hg10 mi
11:15 am52 °FSunny.10 mph35%30.08 "Hg10 mi
10:55 am52 °FSunny.7 mph35%30.08 "Hg10 mi
10:35 am52 °FSunny.5 mph35%30.08 "Hg10 mi
10:15 am52 °FSunny.7 mph32%30.08 "Hg10 mi
9:35 am50 °FSunny.9 mph40%30.08 "Hg10 mi
9:15 am48 °FSunny.7 mph43%30.07 "Hg10 mi
8:55 am46 °FSunny.6 mph50%30.06 "Hg10 mi
4:55 pm
Wed, Dec 4
54 °FSunny.5 mph41%29.71 "Hg10 mi
4:35 pm55 °FSunny.5 mph38%29.70 "Hg10 mi
4:15 pm55 °FSunny.5 mph38%29.70 "Hg10 mi
3:35 pm55 °FSunny.7 mph36%29.69 "Hg10 mi
3:15 pm55 °FSunny.12 mph36%29.68 "Hg10 mi
2:55 pm57 °FSunny.8 mph36%29.67 "Hg10 mi
2:35 pm57 °FSunny.10 mph36%29.67 "Hg10 mi
2:15 pm55 °FSunny.9 mph36%29.66 "Hg10 mi
Weather by CustomWeather, © 2019

See weather overview

Advertising